Time,TemperatureF,DewpointF,PressureIn,WindDirection,WindDirectionDegrees,WindSpeedMPH,WindSpeedGustMPH,Humidity,HourlyPrecipIn,Conditions,Clouds,dailyrainin,SoftwareType,DateUTC
2013-04-08 00:10:00,0.0,-40.5,25.99,South,175,0.0,0.0,12,0.00,,,-99.99,VWS V12.07,2013-04-08 07:10:00,
2013-04-08 00:16:00,0.0,-40.5,25.99,South,175,0.0,0.0,12,0.00,,,-99.99,VWS V12.07,2013-04-08 07:16:00,
2013-04-08 00:22:00,0.0,-40.5,25.99,South,175,0.0,0.0,12,0.00,,,-99.99,VWS V12.07,2013-04-08 07:22:00,
2013-04-08 00:28:00,0.0,-40.5,25.99,South,175,0.0,0.0,12,0.00,,,-99.99,VWS V12.07,2013-04-08 07:28:00,
2013-04-08 00:38:00,0.0,-40.5,25.99,South,175,0.0,0.0,12,0.00,,,-99.99,VWS V12.07,2013-04-08 07:38:00,
2013-04-08 00:44:00,0.0,-40.5,25.99,South,175,0.0,0.0,12,0.00,,,-99.99,VWS V12.07,2013-04-08 07:44:00,
2013-04-08 00:50:00,0.0,-40.5,25.99,South,175,0.0,0.0,12,0.00,,,-99.99,VWS V12.07,2013-04-08 07:50:00,
2013-04-08 00:56:00,0.0,-40.5,25.99,South,175,0.0,0.0,12,0.00,,,-99.99,VWS V12.07,2013-04-08 07:56:00,
2013-04-08 01:02:00,0.0,-40.5,25.99,South,175,0.0,0.0,12,0.00,,,-99.99,VWS V12.07,2013-04-08 08:02:00,
2013-04-08 01:08:00,0.0,-40.5,25.99,South,175,0.0,0.0,12,0.00,,,-99.99,VWS V12.07,2013-04-08 08:08:00,
2013-04-08 01:18:00,0.0,-40.5,25.99,South,175,0.0,0.0,12,0.00,,,-99.99,VWS V12.07,2013-04-08 08:18:00,
2013-04-08 01:28:00,0.0,-40.5,25.99,NE,35,0.0,0.0,12,0.00,,,-99.99,VWS V12.07,2013-04-08 08:28:00,
2013-04-08 01:38:00,0.0,-40.5,25.99,NE,56,0.0,0.0,12,0.00,,,-99.99,VWS V12.07,2013-04-08 08:38:00,
2013-04-08 01:44:00,0.0,-40.5,25.99,NE,43,0.0,0.0,12,0.00,,,-99.99,VWS V12.07,2013-04-08 08:44:00,
2013-04-08 01:50:00,0.0,-40.5,25.99,ESE,110,0.0,0.0,12,0.00,,,-99.99,VWS V12.07,2013-04-08 08:50:00,
2013-04-08 01:56:00,0.0,-40.5,25.99,ESE,110,0.0,0.0,12,0.00,,,-99.99,VWS V12.07,2013-04-08 08:56:00,
2013-04-08 02:02:00,0.0,-40.5,25.99,ESE,110,0.0,0.0,12,0.00,,,-99.99,VWS V12.07,2013-04-08 09:02:00,
2013-04-08 02:08:00,0.0,-40.5,25.99,ESE,110,0.0,0.0,12,0.00,,,-99.99,VWS V12.07,2013-04-08 09:08:00,
2013-04-08 02:16:00,0.0,-40.5,25.99,ESE,110,0.0,0.0,12,0.00,,,-99.99,VWS V12.07,2013-04-08 09:16:00,
2013-04-08 02:22:00,0.0,-40.5,25.99,ESE,111,0.0,0.0,12,0.00,,,-99.99,VWS V12.07,2013-04-08 09:22:00,
2013-04-08 02:28:00,0.0,-40.5,25.96,South,172,2.7,4.0,12,0.00,,,-99.99,VWS V12.07,2013-04-08 09:28:00,
2013-04-08 02:34:00,0.0,-40.5,25.96,SSE,166,0.0,4.0,12,0.00,,,-99.99,VWS V12.07,2013-04-08 09:34:00,
2013-04-08 02:40:00,0.0,-40.5,25.96,SSW,200,0.0,0.0,12,0.00,,,-99.99,VWS V12.07,2013-04-08 09:40:00,
2013-04-08 02:48:00,0.0,-40.5,25.96,SSW,201,0.0,0.0,12,0.00,,,-99.99,VWS V12.07,2013-04-08 09:48:00,
2013-04-08 02:54:00,0.0,-40.5,25.96,SSW,201,0.0,0.0,12,0.00,,,-99.99,VWS V12.07,2013-04-08 09:54:00,
2013-04-08 03:02:00,0.0,-40.5,25.96,SSW,201,0.0,0.0,12,0.00,,,-99.99,VWS V12.07,2013-04-08 10:02:00,
2013-04-08 03:10:00,0.0,-40.5,25.93,South,179,0.0,3.1,12,0.00,,,-99.99,VWS V12.07,2013-04-08 10:10:00,
2013-04-08 03:18:00,0.0,-40.5,25.93,South,174,0.0,5.8,12,0.00,,,-99.99,VWS V12.07,2013-04-08 10:18:00,
2013-04-08 03:24:00,0.0,-40.5,25.93,SW,222,4.8,4.8,12,0.00,,,-99.99,VWS V12.07,2013-04-08 10:24:00,
2013-04-08 03:30:00,0.0,-40.5,25.93,SW,218,4.3,4.3,12,0.00,,,-99.99,VWS V12.07,2013-04-08 10:30:00,
2013-04-08 03:36:00,0.0,-40.5,25.93,SW,223,0.0,4.0,12,0.00,,,-99.99,VWS V12.07,2013-04-08 10:36:00,
2013-04-08 03:42:00,0.0,-40.5,25.93,SSW,194,0.0,6.3,12,0.00,,,-99.99,VWS V12.07,2013-04-08 10:42:00,
2013-04-08 03:48:00,0.0,-40.5,25.93,SSE,165,0.0,6.3,12,0.00,,,-99.99,VWS V12.07,2013-04-08 10:48:00,
2013-04-08 03:54:00,0.0,-40.5,25.93,SW,226,4.8,6.3,12,0.00,,,-99.99,VWS V12.07,2013-04-08 10:54:00,
2013-04-08 04:00:00,0.0,-40.5,25.93,SW,224,0.0,6.3,12,0.00,,,-99.99,VWS V12.07,2013-04-08 11:00:00,
2013-04-08 04:08:00,0.0,-40.5,25.93,SSW,212,0.0,5.4,12,0.00,,,-99.99,VWS V12.07,2013-04-08 11:08:00,
2013-04-08 04:14:00,0.0,-40.5,25.93,SSW,204,0.0,5.4,12,0.00,,,-99.99,VWS V12.07,2013-04-08 11:14:00,
2013-04-08 04:20:00,0.0,-40.5,25.93,SW,230,3.2,5.8,12,0.00,,,-99.99,VWS V12.07,2013-04-08 11:20:00,
2013-04-08 04:26:00,0.0,-40.5,25.93,SSW,210,3.8,4.0,12,0.00,,,-99.99,VWS V12.07,2013-04-08 11:26:00,